Regional Weather Roundup
Issued by NWS State College, PA

Home | Current Version | Previous Version | Text Only | Print | Product List | Glossary Off
Versions: 1 2 3 4 5 6 7 8 9 10 11 12 13 14 15 16 17 18 19 20 21 22 23 24 25 26 27 28 29 30 31 32 33 34 35 36 37 38 39 40 41 42 43 44 45 46 47 48 49 50

000
ASUS41 KCTP 230003
RWRCTP

REGIONAL WEATHER ROUNDUP
NATIONAL WEATHER SERVICE STATE COLLEGE PA
800 PM EDT TUE JUL 22 2014

Note: "fair" indicates few or no clouds below 12,000 feet with no
significant weather and/or obstructions to visibility.

* = STATION THAT DOES NOT REPORT PRECIPITATION /E.G. RAIN...SNOW...ETC/
    THUNDER OR FOG.

PAZ002>004-007>009-013>016-020>023-029>032-230100-
WESTERN PENNSYLVANIA

CITY           SKY/WX    TMP DP  RH WIND       PRES   REMARKS
ERIE           CLEAR     81  65  58 SW3       30.01F
MEADVILLE      NOT AVBL
FRANKLIN*      CLEAR     81  66  61 SW5       30.08F
NEW CASTLE       N/A     84  71  65 CALM      30.05S
BEAVER COUNTY  CLEAR     84  68  58 SW3       30.06S
BUTLER*        CLEAR     81  70  69 CALM      30.08S
PITTSBURGH INT PTCLDY    84  67  56 SW5       30.06R
PITTSBURGH     CLEAR     84  66  54 SW6       30.06R
INDIANA*       CLEAR     82  72  69 S3        30.12R
LATROBE        PTCLDY    84  72  65 W7        30.07S
WASHINGTON CO* CLEAR     81  72  74 W3        30.08S
$$

PAZ004>006-010>012-017>019-024>028-033>037-041-042-045-046-049>053-230100-
CENTRAL PENNSYLVANIA

CITY           SKY/WX    TMP DP  RH WIND       PRES   REMARKS
BRADFORD       CLEAR     79  64  60 CALM      30.11R
DUBOIS         PTCLDY    80  69  69 CALM      30.09S
CLEARFIELD     MOCLDY    80  69  69 SW6       30.10R
JOHNSTOWN      PTCLDY    76  69  79 CALM      30.13S
ALTOONA        CLOUDY    79  71  76 S5        30.11S
STATE COLLEGE  PTCLDY    81  70  69 S6        30.08F
WILLIAMSPORT   CLEAR     83  68  60 VRB3      30.03S
SELINSGROVE    MOCLDY    82  70  66 S5        30.06S
FT INDIANTOWN  PTCLDY    82  71  69 SW8       30.08S
CAPITAL CITY   CLEAR     81  69  67 S7        30.07R
HARRISBURG     PTCLDY    83  70  64 S6        30.06S
YORK           CLEAR     80  69  69 VRB3      30.08S
$$

PAZ038>040-043-044-047-048-054-055-060>062-067>071-230100-
EASTERN PENNSYLVANIA

CITY           SKY/WX    TMP DP  RH WIND       PRES   REMARKS
SCRANTON       PTCLDY    82  67  60 S5        30.07S
MOUNT POCONO   CLEAR     76  67  73 SW9       30.14S
ALLENTOWN      CLEAR     81  69  67 SW8       30.07F
QUAKERTOWN*    CLEAR     81  70  69 S8        30.10S
READING        CLEAR     82  67  60 S8        30.07S
LANCASTER      CLEAR     80  66  62 S9        30.09R
COATESVILLE    CLEAR     77  68  73 CALM      30.12S
POTTSTOWN      CLEAR     80  67  64 S6        30.10S
BLUE BELL      CLEAR     81  68  65 SW8       30.09S
DOYLESTOWN     CLEAR     80  68  66 S6        30.09R
WILLOW GROVE   NOT AVBL
NORTH PHILA    CLEAR     83  64  52 SW10      30.10R
PHILADELPHIA   PTCLDY    82  60  47 S9        30.10R
$$



USA.gov is the U.S. government's official web portal to all federal, state and local government web resources and services.